Kodiak, AK

8:11 PM AKDT on June 25, 2017 (GMT -0800)
Kodiak

Weather History for PADQ - August, 2012

Change the Weather History Date:

Thursday, August 23, 2012

  Actual Average Record
Temperature  
Mean Temperature 55 °F 55 °F  
Max Temperature 58 °F 61 °F 72 °F (1977)
Min Temperature 51 °F 49 °F 38 °F (1961)
Degree Days  
Heating Degree Days 10 10  
Month to date heating degree days 269 216  
Since 1 June heating degree days 1091 1003  
Since 1 July heating degree days 662 542  
Cooling Degree Days 0    
Month to date cooling degree days 0  
Year to date cooling degree days 0  
Since 1 June cooling degree days 0  
Growing Degree Days 4 (Base 50)    
Moisture  
Dew Point 48 °F    
Average Humidity 0    
Maximum Humidity 0    
Minimum Humidity 0    
Precipitation  
Precipitation 0.05 in 0.15 in 1.11 in (1963)
Month to date precipitation 2.49 3.23  
Year to date precipitation 32.98 45.46  
Snow  
Snow 0.00 in 0.00 in 0.00 in (2016)
Month to date snowfall 0.0 0.0  
Since 1 June snowfall 0.0 0.0  
Since 1 July snowfall 0.0 0.0  
Snow Depth 0.00 in    
Sea Level Pressure  
Sea Level Pressure 29.67 in    
Wind  
Wind Speed 8 mph (WNW)    
Max Wind Speed 22 mph    
Max Gust Speed 28 mph    
Visibility 10 miles    
Events Rain    
T = Trace of Precipitation, MM = Missing Value Source: NWS Daily Summary

Daily Weather History Graph

Daily Weather History Graph

Search for Another Location

Airport or City:

Trip Planner

Search our weather history database for the weather conditions in past years. The results will help you decide how hot, cold, wet, or windy it might be!

Date:

Astronomy

Aug. 23, 2012 Rise Set
Actual Time 6:52 AM AKDT 9:30 PM AKDT
Civil Twilight 6:09 AM AKDT 10:13 PM AKDT
Nautical Twilight 5:11 AM AKDT 11:10 PM AKDT
Astronomical Twilight 3:53 AM AKDT 12:26 AM AKDT
Moon 3:38 PM AKDT (8/23) 11:19 PM AKDT (8/23)
Length of Visible Light 16h 04m
Length of Day
14h 37m
Waxing Crescent, 41% of the Moon is Illuminated
Aug 23
Waxing Crescent
Aug 24
First Quarter
Aug 31
Full
Sep 8
Last Quarter
Sep 15
New

Hourly Weather History & Observations

Time (AKDT) Temp. Dew Point Humidity Pressure Visibility Wind Dir Wind Speed Gust Speed Precip Events Conditions
12:14 AM 51.8 °F 51.8 °F 100% 29.66 in 10.0 mi Calm Calm - 0.00 in Rain Light Rain
12:53 AM 51.1 °F 51.1 °F 100% 29.65 in 5.0 mi Calm Calm - 0.03 in Rain Light Rain
1:53 AM 51.1 °F 50.0 °F 96% 29.63 in 9.0 mi Calm Calm - 0.06 in Rain Light Rain
2:48 AM 51.8 °F 50.0 °F 94% 29.63 in 10.0 mi WSW 4.6 mph - 0.00 in Rain Light Rain
2:53 AM 51.1 °F 50.0 °F 96% 29.63 in 10.0 mi West 3.5 mph - 0.00 in Rain Light Rain
3:53 AM 53.1 °F 50.0 °F 89% 29.62 in 10.0 mi WNW 6.9 mph - 0.00 in   Overcast
4:46 AM 53.6 °F 48.2 °F 82% 29.61 in 10.0 mi West 16.1 mph - N/A   Mostly Cloudy
4:53 AM 53.1 °F 48.9 °F 86% 29.61 in 10.0 mi West 11.5 mph - N/A   Scattered Clouds
5:24 AM 53.6 °F 48.2 °F 82% 29.62 in 10.0 mi West 10.4 mph - N/A   Mostly Cloudy
5:53 AM 53.1 °F 48.9 °F 86% 29.62 in 10.0 mi WNW 11.5 mph 26.5 mph N/A   Mostly Cloudy
6:53 AM 53.1 °F 48.9 °F 86% 29.62 in 10.0 mi West 13.8 mph 19.6 mph N/A   Mostly Cloudy
7:53 AM 53.1 °F 48.9 °F 86% 29.63 in 10.0 mi West 13.8 mph 23.0 mph N/A   Mostly Cloudy
8:53 AM 54.0 °F 48.0 °F 80% 29.63 in 10.0 mi WNW 16.1 mph 24.2 mph N/A   Mostly Cloudy
9:53 AM 55.9 °F 46.9 °F 72% 29.64 in 10.0 mi West 12.7 mph 18.4 mph N/A   Mostly Cloudy
10:53 AM 57.0 °F 46.9 °F 69% 29.65 in 10.0 mi WNW 16.1 mph 24.2 mph N/A   Mostly Cloudy
11:53 AM 57.9 °F 46.0 °F 65% 29.65 in 10.0 mi WNW 15.0 mph 19.6 mph N/A   Mostly Cloudy
12:53 PM 55.9 °F 46.0 °F 69% 29.66 in 10.0 mi WNW 10.4 mph 16.1 mph N/A   Mostly Cloudy
1:53 PM 57.0 °F 44.1 °F 62% 29.67 in 10.0 mi WNW 15.0 mph 24.2 mph N/A   Mostly Cloudy
2:53 PM 55.9 °F 45.0 °F 67% 29.68 in 10.0 mi WNW 17.3 mph 24.2 mph N/A   Overcast
3:53 PM 55.0 °F 44.1 °F 67% 29.68 in 10.0 mi NW 15.0 mph 21.9 mph N/A   Overcast
4:53 PM 55.0 °F 44.1 °F 67% 29.70 in 10.0 mi NW 10.4 mph - N/A   Overcast
5:53 PM 51.1 °F 46.9 °F 86% 29.72 in 10.0 mi NW 15.0 mph 20.7 mph 0.07 in Rain Light Rain
6:53 PM 52.0 °F 48.0 °F 86% 29.73 in 10.0 mi WNW 10.4 mph - 0.01 in   Overcast
7:53 PM 53.1 °F 48.0 °F 83% 29.75 in 10.0 mi WNW 8.1 mph - N/A   Mostly Cloudy
8:53 PM 53.1 °F 46.9 °F 80% 29.76 in 10.0 mi WNW 4.6 mph - N/A   Mostly Cloudy
9:53 PM 52.0 °F 46.9 °F 83% 29.78 in 10.0 mi WNW 11.5 mph - N/A   Mostly Cloudy
10:53 PM 52.0 °F 46.0 °F 80% 29.81 in 10.0 mi WNW 10.4 mph - N/A   Mostly Cloudy
11:53 PM 52.0 °F 46.9 °F 83% 29.83 in 10.0 mi WNW 9.2 mph 18.4 mph N/A   Mostly Cloudy